THOR ABLESTAR DEB, 172

Orbit data source: Space-Track

THOR ABLESTAR DEB, 172 is space debris in LEO originally from a launch on Thu, 29 Jun 1961 UTC launched from the Air Force Eastern Test Range (AFETR). Debris objects in space refer to the collection of defunct objects orbiting the Earth. Examples of debris include non-operational satellites, rocket bodies, and fragments generated from explosions, collisions, or faulty payload assembly.

Loading next visibility...
Identifier
172, 1961-015AY
Orbit
LEO
Country
Flag of USUS
Related business
Manufacturer
Unknown
Mission
Spacecraft
Bus & Motor
Unknown
Mass
Unknown
Launch date (UTC)
1961-06-29 (64 years ago)
Launch vehicle
Unknown
Launch site
Air Force Eastern Test Range (AFETR)
Object type
Payload
Rocket body
Debris
Shape & HBR
Unknown shape, 0.2 m
Radar Cross Section
Small (<0.1 m²)

Expand to show TLE details & history
Last TLE update: 12 hours ago

TLE from 12 hours ago
0 THOR ABLESTAR DEB
1   172U 61015AY  25306.24552631  .00000351  00000-0  53570-3 0  9999
2   172  67.0681 327.7018 0138502 227.5448 131.3841 13.59082669174270
Epoch: 2025-11-02T05:53Z
TLE epoch observation values (Epoch: 2025-11-02T05:53:33.473Z)
Latitude
0.00003°
Longitude
-162.45168°
Altitude
1,109.804 km
Speed
7.264 km/s
True Right ascension
21h 50m 48s
True Declination
0° 00' 00"
Sunlit
Object was in daylight at epoch
Visualization orbit readout
Latitude
Unknown
Longitude
Unknown
Altitude
Unknown
Speed
Unknown
Apparent Right ascension
Unknown
Apparent Declination
Unknown
Sunlit
N/A
Visualization observer readout
Local Sidereal Time
13:29:20
Azimuth
Unknown
Elevation
Unknown
Doppler factor
Unknown
Orbital elements
Apogee altitude
1,140.122 km
Perigee altitude
934.708 km
Semi-major axis
7,415.552 km
Eccentricity
0.01385
Inclination
67.0681°
RAAN
327.7018°
Arg. of periapsis
227.5448°
True anomaly
132.56134°
Mean anomaly
131.3841°
Eccentric anomaly
131.97407°
Mean motion
3.39882 °/min
Orbital period
105.92 mins
BSTAR
0.0005357

Documentation

Showing up to 5 results
|